Vorticity
10 10 9 9 9 8 7 7 6 6 5 4 4 4 4 4 4 4 4 4 4 4 5 5 5 6 6 7 7 7 8 8 8 8 8 8 8 8 8 7 7 7 7 7 7 7 6 6 6 6 6 6 7 7 7 7 8 8 8 8 9 9 9 9 9 9 9 9 8
9 9 9 9 8 8 7 7 6 6 5 5 4 4 4 4 4 4 4 5 5 5 5 5 6 6 6 7 7 7 7 7 8 8 8 8 7 7 7 7 7 7 7 6 6 6 6 7 7 7 7 7 7 8 8 8 8 9 9 9 9 9 9 8 8 8 8 8 8
9 9 9 9 8 8 7 7 6 6 5 5 4 4 4 4 4 4 4 5 5 5 5 6 6 6 7 7 7 7 7 7 7 7 7 7 7 6 6 6 6 6 6 6 6 6 7 7 7 7 8 8 8 8 9 9 8 9 9 9 9 8 8 8 8 8 8 8 8
9 9 9 8 8 7 7 6 5 5 5 5 4 4 4 4 4 4 4 4 5 5 6 6 6 6 7 7 7 7 7 7 6 6 6 6 6 6 5 5 5 5 6 6 6 7 7 7 8 8 8 9 9 9 9 9 8 8 8 8 8 8 8 8 8 8 7 8 7
9 9 9 8 7 7 6 6 5 5 5 4 4 4 4 4 4 4 5 5 5 6 6 6 6 6 6 6 6 6 6 6 6 6 5 5 5 5 5 5 5 5 6 6 7 7 8 8 8 8 9 9 9 9 9 9 8 8 8 8 7 7 7 8 8 7 7 7 7
9 9 8 8 7 7 6 6 5 5 4 4 4 4 4 5 5 5 5 5 5 5 5 6 6 6 6 6 6 6 6 6 6 5 5 5 5 5 5 5 6 6 7 7 7 8 8 8 9 9 8 8 8 8 8 8 8 8 7 7 7 7 7 7 7 7 7 7 7
9 8 8 7 7 6 6 6 5 5 5 5 5 5 5 5 5 5 5 5 5 5 6 6 6 6 6 6 6 6 6 6 6 5 5 5 5 5 5 6 6 7 7 8 8 8 8 9 9 9 8 8 8 7 7 7 7 7 7 7 7 7 7 7 7 7 6 7 6
9 8 7 7 6 6 6 6 6 5 5 5 5 5 5 5 6 6 6 6 6 6 6 6 6 6 6 6 6 6 6 6 6 6 5 5 6 6 6 7 7 7 8 8 9 9 9 9 9 8 8 8 7 7 7 7 7 7 7 7 7 6 6 6 6 6 6 6 6
9 8 7 7 6 6 6 6 6 6 6 6 6 6 6 6 6 6 6 6 6 6 6 6 6 6 6 6 6 6 6 6 6 6 6 6 6 7 7 8 8 8 9 9 9 9 9 9 8 8 8 7 7 7 7 6 7 7 7 6 7 6 6 6 6 6 6 6 6
8 8 7 7 7 7 6 6 6 6 6 6 6 6 6 6 6 6 6 6 6 6 6 6 6 6 7 7 7 7 7 7 6 7 7 7 7 8 8 9 9 9 9 9 9 9 9 8 8 7 7 7 7 7 7 6 6 6 6 6 6 6 6 6 6 6 6 6 6
8 7 7 7 7 7 7 7 7 7 6 6 7 7 7 7 6 6 6 6 6 6 6 6 7 7 7 7 7 7 7 7 7 7 7 7 8 8 9 9 9 9 9 9 9 8 8 8 7 7 7 7 6 7 7 6 6 6 6 6 6 6 6 6 6 6 6 6 5
7 7 7 7 7 7 7 7 7 7 7 7 7 7 7 6 6 6 6 6 6 7 7 7 7 7 7 7 7 7 7 7 7 7 7 8 8 8 8 9 9 9 8 8 8 8 7 7 7 7 7 7 6 6 6 7 6 6 6 6 6 6 6 6 6 6 5 5 5
7 7 7 7 7 7 7 7 7 7 7 7 6 6 6 6 6 6 6 6 7 7 7 7 7 7 7 7 7 6 6 6 6 7 7 7 8 8 8 8 8 8 8 7 7 7 7 7 7 7 7 7 7 7 7 7 7 7 6 6 6 6 6 6 6 6 6 5 5
7 7 7 7 7 7 7 7 7 7 6 6 6 6 6 6 6 6 6 7 7 7 7 7 7 7 7 6 6 6 6 6 6 7 7 7 7 7 7 7 7 7 7 7 7 7 7 7 7 7 7 7 7 7 7 7 7 7 7 7 6 6 6 6 6 6 5 5 5
7 7 7 7 7 7 6 6 6 6 6 6 6 6 6 6 6 6 7 7 7 7 7 7 7 6 6 6 6 6 6 6 6 7 7 7 7 7 7 7 7 7 7 7 7 7 7 7 7 7 7 7 7 7 7 7 7 7 7 7 7 7 7 6 6 6 5 5 5
7 7 7 7 6 6 6 6 6 6 6 6 6 6 6 6 6 7 7 7 7 7 6 6 6 6 5 5 5 6 6 6 6 7 7 7 7 7 7 7 7 7 7 7 7 7 7 7 7 7 7 7 7 7 7 7 7 7 7 7 7 7 7 6 6 5 5 5 4
7 6 6 6 6 6 6 6 6 6 6 6 6 6 6 6 7 7 7 7 6 6 6 6 5 5 5 5 5 6 6 6 6 6 7 7 7 7 7 7 7 7 7 7 7 7 7 7 7 7 7 7 7 7 7 7 7 7 7 7 7 7 6 6 6 5 5 4 4
6 6 6 6 6 6 6 6 6 6 6 6 6 6 6 7 7 7 6 6 6 6 6 5 5 5 5 6 6 6 6 6 6 6 7 7 7 7 7 7 7 7 7 7 7 7 7 7 7 7 7 7 7 7 7 7 7 7 7 7 7 7 6 6 5 5 4 4 4
6 6 6 6 6 6 6 6 6 6 6 6 6 6 7 7 6 6 6 6 6 6 5 5 5 5 5 6 6 6 6 6 6 7 7 7 7 7 7 7 7 7 7 7 7 7 7 7 7 7 7 7 7 7 8 8 8 8 7 7 7 6 6 5 5 4 4 4 4
6 6 6 6 6 6 6 6 6 6 6 6 6 7 7 6 6 6 6 6 5 5 5 6 6 6 6 6 6 6 6 6 7 7 7 7 7 7 7 7 7 7 7 7 7 7 7 7 7 7 7 7 8 8 8 8 8 8 7 7 6 5 5 5 4 4 5 5 5
6 6 6 6 6 6 6 6 6 6 6 7 7 7 6 6 6 6 6 6 5 5 6 6 6 6 6 6 6 7 7 7 7 7 7 7 7 7 7 7 7 7 7 7 7 7 7 7 7 7 8 8 8 8 8 8 8 7 7 6 5 5 5 5 5 5 6 6 7
6 6 6 6 6 6 6 6 6 7 7 7 7 6 6 6 6 6 6 6 6 6 6 6 6 6 6 6 7 7 7 7 7 6 6 6 6 6 6 6 6 7 7 7 7 7 7 7 8 8 8 9 9 9 8 8 7 7 6 5 5 5 5 5 6 6 6 7 7
6 6 6 6 6 6 6 7 7 7 7 7 7 6 6 6 6 6 6 6 6 6 6 6 6 6 6 6 7 7 7 7 6 6 6 6 6 6 6 6 6 7 7 7 7 7 8 8 9 9 9 9 9 8 8 7 7 6 6 5 5 5 5 6 6 6 7 7 6
6 6 6 6 7 7 7 7 7 7 7 7 7 6 6 6 6 6 6 6 6 6 6 6 6 6 6 7 6 6 6 6 6 6 6 6 6 6 6 7 7 7 7 7 8 8 9 9 9 9 9 9 8 8 7 7 6 6 6 6 6 6 6 6 6 6 6 6 6
6 6 7 7 7 7 7 7 7 7 7 7 6 6 6 6 6 6 6 6 6 6 6 6 6 6 6 6 6 6 6 6 6 6 6 6 6 7 7 7 7 8 8 8 9 9 10 10 10 9 9 8 8 7 7 6 6 6 6 6 6 6 6 6 6 6 6 5 5
7 7 7 7 8 8 8 7 7 7 7 7 6 6 6 6 6 6 6 6 6 6 6 6 6 6 6 6 6 6 6 6 6 6 6 7 7 7 7 8 8 8 9 9 10 10 10 10 9 9 8 7 7 6 6 6 6 6 6 6 6 6 6 6 6 6 5 5 6
7 8 8 8 8 8 8 7 7 7 7 7 6 6 6 6 6 6 6 6 6 6 6 6 6 6 6 6 6 6 6 6 6 7 7 7 7 8 8 8 9 9 9 10 10 10 9 9 9 8 7 7 6 6 6 5 6 6 6 7 7 7 6 6 5 5 6 6 8
8 8 8 8 8 8 7 7 7 7 7 6 6 6 6 6 6 6 6 6 6 6 6 6 6 6 6 6 6 6 6 7 7 7 7 8 8 8 9 9 9 10 10 10 10 9 9 8 7 7 6 6 6 5 5 6 6 6 7 7 6 6 6 5 6 6 7 9 11
9 8 8 8 8 7 7 7 7 7 6 6 6 6 6 6 6 6 6 6 6 6 6 6 6 6 6 6 6 7 7 7 7 8 8 8 9 9 9 9 10 10 10 9 9 8 8 7 6 6 6 5 5 6 6 6 7 7 7 6 6 5 5 6 7 9 11 13 16
9 8 8 8 7 7 7 7 7 7 6 6 6 6 6 6 6 6 6 6 6 6 6 6 6 6 6 7 7 7 7 8 8 8 8 9 9 9 9 10 10 9 9 8 8 7 7 6 6 5 5 6 6 6 7 7 7 7 6 5 5 6 6 8 10 13 16 19 21
8 8 8 7 7 7 7 7 6 6 6 6 6 6 6 6 6 6 6 6 6 6 6 6 6 7 7 7 7 8 8 8 8 8 9 9 9 9 9 9 9 9 8 8 7 6 6 6 5 6 6 6 7 7 7 7 6 6 5 5 6 7 10 12 15 18 21 24 27
8 7 7 7 7 7 6 6 6 6 6 6 6 6 6 6 6 6 6 6 6 6 6 6 7 7 7 8 8 8 8 8 8 9 9 9 9 9 9 9 9 8 7 7 6 6 6 6 6 6 7 7 7 7 6 6 5 5 5 6 8 11 14 17 21 24 26 29 31
7 7 7 7 6 6 6 6 6 6 6 6 6 6 6 6 6 6 6 6 6 6 7 7 7 8 8 8 8 8 8 8 9 9 9 9 9 9 9 8 8 7 6 6 6 6 6 6 7 7 7 7 7 6 6 5 5 5 7 10 13 16 20 23 26 28 30 32 33
7 7 6 6 6 6 6 6 6 6 6 6 6 6 6 6 6 6 6 6 7 7 7 7 8 8 8 8 8 8 8 9 9 9 9 9 9 8 8 7 7 6 6 6 6 6 7 7 7 7 7 6 6 5 5 5 6 8 11 14 18 22 25 28 30 32 33 33 34
6 6 6 6 6 6 6 6 6 6 6 6 6 6 6 6 6 6 7 7 7 8 8 8 8 8 8 8 8 8 8 9 9 9 9 8 8 7 7 7 6 6 6 6 6 7 7 7 7 7 6 5 4 4 5 6 9 12 16 20 23 26 29 31 33 34 34 34 34
6 6 6 6 6 6 6 6 6 6 6 6 6 6 6 6 7 7 7 7 8 8 8 8 8 8 8 8 8 9 9 9 9 8 8 8 7 7 6 6 6 6 6 7 7 7 7 7 6 6 5 4 4 5 7 10 13 17 21 25 27 30 32 33 34 34 34 34 35
6 6 6 6 6 6 6 6 6 6 6 6 6 6 7 7 7 8 8 8 8 8 8 8 8 8 8 8 8 9 9 9 8 8 7 7 7 6 6 6 6 7 7 7 7 7 7 6 5 5 4 4 5 7 10 14 19 23 26 29 30 32 33 34 34 34 34 35 36
6 6 6 6 6 6 6 6 6 6 6 6 6 7 7 7 8 8 8 8 8 8 8 8 8 8 8 8 8 8 8 8 8 7 7 6 6 6 6 6 7 7 8 8 7 7 6 5 5 4 5 6 8 11 15 20 24 27 30 32 32 32 33 34 34 34 34 36 36
6 6 6 5 5 5 6 6 6 6 6 6 7 7 8 8 8 8 8 8 8 8 7 8 8 8 8 8 8 8 8 8 8 7 6 6 6 6 7 7 7 8 8 8 7 6 5 5 5 5 7 9 12 16 20 25 28 30 32 33 32 32 32 33 34 34 35 37 36
6 5 5 5 5 5 6 6 6 6 7 7 7 8 8 8 8 8 8 8 7 7 7 7 8 8 8 8 8 8 7 7 7 7 7 6 6 7 8 8 7 7 7 7 6 5 5 5 6 7 10 13 18 22 26 29 31 32 32 33 31 30 30 32 35 36 36 36 34
5 5 5 5 5 6 6 6 6 7 7 8 8 8 8 8 8 8 8 7 7 7 7 8 8 8 8 8 8 7 7 7 7 7 7 7 7 8 8 8 7 7 7 6 6 5 5 6 8 11 14 19 23 27 30 32 33 32 32 31 30 29 30 32 36 38 37 34 30
Height
5768 5767 5766 5766 5765 5764 5763 5762 5761 5760 5759 5758 5756 5755 5755 5753 5752 5751 5750 5749 5748 5746 5745 5744 5743 5741 5740 5739 5737 5736 5735 5733 5732 5730 5729 5727 5725 5724 5722 5720 5719 5717 5715 5714 5712 5710 5709 5707 5705 5704 5702 5700 5699 5696 5695 5693 5690 5688 5686 5685 5683 5681 5679 5678 5676 5674 5672 5670 5668
5765 5765 5764 5763 5762 5761 5760 5759 5758 5757 5755 5755 5753 5752 5751 5750 5749 5748 5747 5745 5744 5743 5742 5740 5739 5738 5737 5735 5734 5733 5731 5730 5728 5727 5725 5724 5722 5720 5719 5717 5715 5714 5712 5710 5708 5706 5705 5703 5701 5699 5698 5696 5694 5692 5690 5688 5686 5684 5682 5680 5678 5676 5674 5672 5670 5669 5667 5665 5663
5763 5761 5760 5760 5759 5758 5757 5756 5755 5754 5752 5751 5750 5749 5748 5747 5746 5745 5744 5742 5741 5740 5739 5737 5736 5735 5734 5732 5731 5729 5728 5726 5725 5723 5722 5720 5718 5716 5715 5713 5711 5710 5708 5706 5704 5702 5700 5699 5697 5695 5693 5691 5690 5688 5685 5683 5681 5679 5677 5675 5673 5671 5669 5667 5665 5663 5661 5659 5657
5760 5759 5758 5757 5756 5755 5754 5753 5751 5750 5749 5748 5747 5746 5745 5744 5743 5742 5740 5739 5738 5737 5735 5734 5733 5731 5730 5729 5727 5726 5724 5723 5721 5720 5718 5716 5715 5713 5711 5709 5707 5706 5704 5702 5700 5698 5696 5694 5692 5691 5689 5687 5685 5683 5681 5679 5677 5675 5673 5670 5668 5666 5664 5662 5660 5658 5656 5654 5651
5757 5756 5755 5754 5753 5752 5750 5750 5748 5747 5746 5745 5744 5743 5742 5741 5740 5738 5737 5736 5735 5733 5732 5731 5730 5728 5727 5725 5724 5722 5720 5719 5717 5716 5714 5712 5710 5709 5707 5705 5703 5701 5699 5697 5695 5694 5691 5690 5688 5686 5684 5682 5680 5678 5676 5674 5672 5670 5668 5666 5664 5661 5659 5657 5655 5653 5650 5648 5646
5755 5753 5752 5751 5750 5749 5748 5746 5745 5744 5743 5742 5741 5740 5739 5738 5736 5735 5734 5733 5731 5730 5729 5727 5726 5724 5723 5721 5720 5718 5716 5715 5713 5711 5710 5708 5706 5705 5703 5700 5699 5697 5695 5693 5691 5689 5687 5685 5683 5681 5679 5677 5675 5673 5671 5669 5666 5665 5663 5661 5659 5656 5654 5651 5650 5647 5645 5643 5640
5752 5750 5750 5748 5747 5746 5745 5744 5742 5741 5740 5739 5738 5737 5735 5734 5733 5732 5730 5729 5728 5726 5725 5723 5722 5720 5719 5717 5716 5714 5712 5711 5709 5707 5705 5704 5702 5700 5698 5696 5694 5692 5690 5688 5686 5684 5682 5680 5678 5676 5674 5672 5670 5668 5666 5664 5661 5659 5658 5655 5654 5651 5649 5646 5644 5641 5639 5637 5635
5749 5748 5746 5745 5744 5743 5742 5740 5740 5738 5737 5736 5735 5733 5732 5731 5730 5728 5727 5725 5724 5722 5721 5720 5718 5716 5715 5713 5711 5710 5708 5706 5705 5703 5701 5699 5697 5695 5693 5691 5689 5687 5685 5683 5680 5679 5677 5675 5673 5671 5669 5666 5665 5663 5660 5658 5656 5654 5652 5650 5648 5645 5643 5640 5638 5635 5633 5631 5629
5746 5745 5744 5742 5741 5740 5739 5737 5736 5735 5734 5732 5731 5730 5729 5727 5726 5725 5723 5722 5720 5719 5717 5715 5714 5712 5710 5709 5707 5705 5704 5702 5700 5698 5696 5694 5692 5690 5688 5686 5684 5682 5680 5678 5676 5674 5671 5670 5668 5665 5663 5661 5659 5657 5655 5653 5650 5648 5646 5644 5642 5640 5637 5635 5632 5630 5627 5625 5623
5743 5742 5740 5739 5738 5737 5735 5734 5733 5732 5730 5729 5728 5726 5725 5724 5722 5721 5719 5718 5716 5715 5713 5711 5710 5708 5706 5705 5703 5701 5699 5697 5695 5694 5692 5690 5687 5685 5683 5681 5679 5677 5675 5673 5671 5669 5666 5665 5662 5660 5658 5656 5654 5651 5649 5647 5645 5642 5640 5638 5636 5634 5631 5629 5626 5623 5621 5619 5616
5740 5739 5737 5736 5735 5733 5732 5731 5729 5728 5727 5725 5724 5723 5721 5720 5718 5717 5715 5714 5712 5710 5709 5707 5705 5704 5702 5700 5698 5696 5695 5693 5691 5689 5687 5685 5683 5680 5678 5676 5674 5672 5670 5668 5666 5664 5661 5659 5657 5655 5653 5650 5648 5646 5643 5641 5639 5637 5635 5632 5630 5628 5625 5623 5620 5617 5615 5612 5610
5736 5735 5734 5732 5731 5730 5728 5727 5726 5724 5723 5722 5720 5719 5717 5716 5714 5713 5711 5710 5708 5706 5705 5703 5701 5699 5697 5695 5694 5692 5690 5688 5686 5684 5682 5680 5677 5675 5673 5671 5669 5667 5665 5663 5660 5658 5656 5654 5652 5650 5647 5645 5643 5640 5638 5635 5633 5631 5629 5626 5624 5622 5619 5616 5614 5611 5608 5605 5603
5733 5731 5730 5729 5727 5726 5725 5723 5722 5720 5719 5718 5716 5715 5713 5712 5710 5709 5707 5705 5704 5702 5700 5698 5696 5695 5693 5691 5689 5687 5685 5683 5681 5679 5677 5675 5672 5670 5668 5666 5664 5662 5660 5657 5655 5653 5650 5648 5646 5644 5642 5640 5637 5635 5632 5630 5627 5625 5623 5620 5618 5615 5613 5610 5607 5604 5601 5599 5596
5729 5728 5726 5725 5724 5722 5721 5720 5718 5717 5715 5714 5712 5711 5709 5707 5706 5705 5703 5701 5699 5698 5695 5694 5692 5690 5688 5686 5684 5682 5680 5678 5676 5674 5672 5670 5668 5665 5663 5661 5659 5657 5655 5652 5650 5648 5645 5643 5640 5639 5636 5634 5632 5630 5627 5624 5621 5619 5617 5614 5612 5609 5606 5604 5600 5598 5595 5592 5590
5725 5724 5723 5721 5720 5719 5717 5716 5714 5713 5711 5710 5708 5707 5705 5703 5702 5700 5698 5696 5695 5693 5691 5689 5687 5685 5683 5681 5680 5677 5675 5673 5671 5669 5667 5665 5663 5661 5659 5656 5654 5652 5650 5647 5645 5642 5640 5637 5635 5633 5631 5629 5626 5624 5621 5618 5616 5613 5610 5608 5605 5603 5600 5597 5594 5591 5588 5585 5583
5722 5720 5719 5718 5716 5715 5713 5712 5710 5709 5707 5706 5704 5702 5701 5699 5697 5696 5694 5692 5690 5688 5687 5685 5683 5681 5679 5677 5675 5673 5671 5669 5666 5665 5662 5660 5658 5656 5654 5651 5649 5647 5644 5642 5640 5637 5635 5632 5630 5627 5625 5623 5620 5618 5615 5613 5610 5607 5605 5602 5599 5596 5593 5590 5587 5584 5581 5579 5576
5718 5717 5715 5714 5713 5711 5710 5708 5707 5705 5704 5702 5700 5698 5697 5695 5693 5691 5690 5688 5686 5684 5682 5680 5679 5676 5675 5672 5670 5668 5666 5664 5662 5660 5658 5655 5653 5651 5649 5646 5644 5641 5639 5636 5634 5632 5629 5627 5624 5621 5619 5617 5614 5612 5609 5607 5604 5601 5599 5596 5593 5590 5587 5584 5580 5578 5575 5571 5569
5715 5713 5712 5710 5709 5707 5706 5705 5703 5701 5700 5698 5696 5694 5693 5691 5689 5687 5685 5684 5682 5680 5678 5676 5674 5672 5670 5668 5666 5664 5662 5660 5657 5655 5653 5650 5648 5646 5644 5641 5639 5636 5633 5631 5628 5626 5623 5621 5618 5616 5613 5611 5608 5606 5603 5600 5598 5595 5593 5590 5587 5584 5580 5577 5574 5571 5568 5565 5561
5711 5710 5708 5707 5705 5704 5702 5701 5699 5697 5696 5694 5692 5690 5689 5687 5685 5683 5681 5679 5677 5676 5674 5672 5670 5668 5666 5664 5661 5659 5657 5655 5652 5650 5648 5645 5643 5640 5638 5636 5633 5630 5628 5625 5622 5620 5618 5615 5613 5610 5607 5605 5602 5600 5597 5595 5592 5589 5586 5583 5580 5577 5574 5570 5567 5564 5560 5557 5554
5708 5706 5705 5703 5702 5700 5699 5697 5695 5694 5692 5690 5688 5687 5685 5683 5681 5679 5677 5675 5673 5671 5670 5668 5666 5664 5661 5659 5657 5655 5652 5650 5648 5645 5643 5640 5638 5635 5633 5630 5627 5625 5622 5620 5617 5614 5612 5609 5607 5604 5602 5599 5596 5594 5591 5589 5586 5583 5580 5577 5574 5571 5567 5564 5560 5557 5553 5550 5546
5705 5703 5701 5700 5698 5697 5695 5693 5692 5690 5688 5686 5685 5683 5681 5679 5677 5675 5673 5671 5669 5667 5665 5663 5661 5659 5657 5655 5653 5650 5648 5645 5643 5640 5638 5635 5633 5630 5627 5625 5622 5619 5616 5614 5611 5608 5606 5603 5601 5598 5596 5593 5590 5588 5585 5583 5580 5577 5574 5571 5568 5565 5561 5557 5554 5550 5546 5543 5539
5701 5699 5698 5696 5695 5693 5691 5690 5688 5686 5684 5683 5681 5679 5677 5675 5673 5671 5669 5667 5665 5663 5661 5659 5657 5655 5652 5650 5648 5645 5643 5640 5638 5635 5633 5630 5627 5625 5622 5619 5616 5614 5611 5608 5605 5603 5600 5598 5595 5593 5590 5587 5585 5582 5580 5577 5574 5571 5569 5565 5562 5558 5555 5551 5547 5543 5539 5535 5532
5697 5696 5694 5693 5691 5689 5688 5686 5684 5682 5681 5679 5677 5675 5673 5671 5670 5667 5665 5663 5661 5659 5657 5655 5652 5650 5648 5645 5643 5640 5638 5635 5633 5630 5628 5625 5622 5619 5616 5614 5611 5608 5605 5603 5600 5597 5595 5592 5590 5587 5585 5582 5579 5577 5574 5571 5568 5565 5562 5559 5556 5552 5549 5545 5540 5536 5532 5528 5524
5694 5692 5691 5689 5687 5686 5684 5682 5680 5679 5677 5675 5673 5671 5670 5667 5665 5663 5661 5659 5657 5655 5652 5650 5648 5645 5643 5640 5638 5635 5633 5630 5628 5625 5623 5620 5617 5614 5611 5609 5606 5603 5600 5597 5595 5592 5589 5586 5584 5581 5579 5576 5573 5571 5568 5565 5562 5559 5555 5552 5549 5545 5542 5538 5534 5530 5525 5521 5516
5690 5689 5687 5685 5684 5682 5680 5679 5677 5675 5673 5671 5670 5667 5665 5663 5661 5659 5657 5655 5652 5650 5648 5645 5643 5640 5638 5636 5633 5630 5628 5625 5623 5620 5618 5615 5612 5610 5607 5604 5601 5598 5595 5592 5589 5586 5583 5580 5577 5575 5572 5570 5567 5565 5562 5559 5555 5552 5548 5545 5541 5537 5534 5530 5526 5522 5517 5513 5508
5687 5685 5684 5682 5680 5678 5676 5675 5673 5671 5670 5667 5665 5663 5661 5659 5657 5655 5653 5650 5648 5645 5643 5641 5638 5636 5633 5631 5628 5625 5623 5620 5618 5615 5613 5610 5608 5605 5602 5599 5596 5593 5590 5587 5584 5581 5578 5575 5571 5568 5565 5562 5560 5557 5555 5552 5548 5545 5541 5537 5533 5529 5525 5522 5518 5514 5509 5504 5500
5683 5682 5680 5678 5676 5675 5673 5671 5669 5667 5665 5663 5661 5659 5657 5655 5652 5650 5648 5646 5643 5641 5639 5636 5634 5631 5628 5626 5623 5620 5618 5615 5613 5610 5608 5605 5603 5600 5597 5594 5591 5587 5584 5581 5578 5575 5572 5569 5565 5562 5558 5555 5552 5550 5547 5544 5541 5537 5533 5529 5525 5520 5516 5512 5509 5505 5500 5495 5490
5680 5678 5676 5675 5673 5671 5669 5667 5665 5663 5661 5659 5657 5655 5652 5650 5648 5646 5643 5641 5639 5636 5634 5631 5629 5626 5624 5621 5618 5616 5613 5610 5608 5605 5602 5600 5597 5595 5592 5589 5585 5582 5579 5575 5572 5569 5566 5562 5559 5555 5552 5548 5545 5541 5539 5536 5533 5529 5525 5521 5516 5512 5507 5503 5499 5495 5490 5485 5481
5676 5674 5672 5670 5669 5667 5665 5663 5661 5659 5657 5655 5653 5650 5648 5646 5643 5641 5639 5636 5634 5631 5629 5626 5624 5621 5619 5616 5613 5611 5608 5605 5603 5600 5597 5595 5592 5589 5586 5583 5579 5576 5572 5569 5566 5563 5559 5556 5553 5549 5545 5541 5537 5534 5531 5528 5524 5520 5517 5512 5508 5503 5498 5494 5489 5484 5480 5475 5470
5672 5670 5669 5667 5665 5663 5661 5659 5657 5655 5652 5650 5648 5646 5643 5641 5639 5636 5634 5632 5629 5627 5624 5622 5619 5616 5614 5611 5609 5606 5603 5600 5598 5595 5592 5589 5586 5584 5580 5577 5573 5570 5566 5563 5560 5556 5553 5549 5546 5542 5538 5534 5530 5526 5523 5520 5516 5512 5508 5504 5499 5494 5489 5484 5479 5474 5470 5465 5460
5668 5666 5665 5663 5661 5659 5656 5655 5652 5650 5648 5646 5643 5641 5639 5636 5634 5632 5629 5627 5624 5622 5619 5617 5614 5611 5609 5606 5604 5601 5598 5595 5592 5589 5586 5584 5581 5578 5575 5571 5567 5564 5560 5556 5553 5550 5546 5542 5539 5535 5531 5527 5523 5519 5515 5511 5508 5504 5499 5495 5490 5485 5480 5474 5469 5464 5459 5455 5450
5664 5662 5660 5659 5656 5654 5652 5650 5648 5646 5643 5641 5639 5636 5634 5632 5629 5627 5624 5622 5619 5617 5614 5612 5609 5607 5604 5601 5599 5596 5593 5590 5587 5584 5580 5578 5575 5572 5569 5565 5561 5557 5554 5550 5546 5543 5539 5535 5532 5528 5524 5520 5516 5512 5508 5504 5500 5495 5490 5486 5480 5475 5470 5465 5460 5455 5450 5445 5440
5660 5658 5656 5654 5652 5650 5648 5646 5644 5641 5639 5636 5634 5632 5630 5627 5624 5622 5619 5617 5615 5612 5610 5607 5604 5601 5599 5596 5593 5590 5587 5585 5581 5578 5575 5571 5569 5566 5563 5559 5555 5551 5547 5543 5540 5536 5532 5529 5525 5520 5517 5513 5509 5505 5500 5496 5491 5487 5482 5477 5471 5466 5461 5455 5450 5445 5440 5436 5432
5656 5654 5652 5650 5648 5645 5643 5641 5639 5637 5634 5632 5630 5627 5625 5622 5620 5617 5615 5612 5610 5607 5605 5602 5599 5596 5594 5590 5588 5585 5582 5579 5575 5572 5569 5566 5563 5560 5556 5553 5549 5545 5541 5537 5533 5529 5525 5521 5517 5513 5509 5505 5501 5497 5493 5489 5484 5478 5473 5468 5463 5457 5452 5447 5442 5437 5432 5428 5424
5651 5650 5648 5645 5643 5641 5639 5637 5634 5632 5630 5627 5625 5622 5620 5617 5615 5612 5610 5607 5605 5602 5600 5597 5594 5591 5588 5585 5582 5579 5576 5573 5570 5566 5563 5560 5557 5554 5550 5547 5543 5539 5535 5530 5526 5522 5518 5514 5510 5505 5501 5497 5493 5489 5485 5480 5476 5470 5465 5460 5455 5449 5444 5439 5434 5429 5425 5421 5417
5647 5645 5643 5641 5639 5637 5635 5632 5630 5627 5625 5623 5620 5618 5615 5613 5610 5607 5605 5603 5600 5597 5595 5592 5589 5586 5583 5580 5577 5573 5570 5567 5564 5560 5557 5554 5550 5547 5544 5541 5537 5533 5528 5524 5519 5515 5511 5507 5502 5498 5494 5490 5485 5481 5477 5472 5467 5462 5457 5452 5446 5441 5436 5432 5427 5423 5418 5414 5411
5643 5641 5639 5637 5634 5632 5630 5627 5625 5623 5620 5618 5615 5613 5610 5608 5605 5602 5600 5597 5595 5592 5590 5587 5584 5581 5578 5575 5571 5568 5565 5561 5557 5554 5550 5547 5544 5541 5538 5534 5530 5526 5522 5517 5513 5508 5504 5500 5495 5490 5485 5481 5477 5473 5468 5464 5459 5454 5449 5444 5439 5434 5430 5425 5421 5417 5413 5409 5405
5638 5636 5634 5632 5630 5627 5625 5623 5620 5618 5615 5613 5610 5608 5605 5603 5600 5598 5595 5592 5590 5587 5585 5582 5579 5575 5572 5569 5566 5562 5559 5555 5551 5548 5544 5540 5537 5534 5531 5527 5524 5520 5515 5511 5506 5501 5497 5492 5487 5482 5477 5473 5469 5464 5460 5455 5450 5446 5441 5436 5432 5428 5423 5419 5415 5411 5408 5404 5401
5634 5632 5630 5627 5625 5623 5620 5618 5615 5613 5611 5608 5605 5603 5600 5598 5595 5593 5590 5587 5584 5582 5579 5576 5573 5570 5567 5563 5560 5557 5554 5550 5546 5542 5538 5534 5530 5527 5524 5520 5517 5513 5509 5504 5500 5495 5490 5485 5480 5475 5470 5465 5460 5455 5451 5447 5442 5438 5433 5429 5425 5422 5418 5414 5410 5407 5403 5400 5397
5629 5627 5625 5623 5620 5618 5616 5613 5611 5608 5606 5603 5600 5598 5595 5593 5590 5588 5585 5582 5579 5576 5573 5570 5567 5564 5561 5557 5554 5551 5548 5544 5540 5536 5532 5528 5524 5520 5516 5513 5510 5505 5501 5497 5493 5488 5482 5477 5472 5467 5461 5456 5451 5447 5442 5438 5435 5430 5426 5422 5419 5416 5412 5409 5405 5402 5399 5396 5393
5625 5622 5620 5618 5615 5613 5611 5608 5606 5603 5601 5598 5596 5593 5590 5588 5585 5582 5580 5576 5573 5570 5567 5565 5561 5558 5555 5551 5548 5545 5542 5538 5535 5530 5526 5522 5517 5513 5510 5506 5502 5499 5494 5490 5485 5480 5475 5470 5464 5459 5454 5448 5443 5439 5434 5430 5427 5423 5419 5416 5413 5410 5407 5404 5401 5398 5395 5393 5390